When you browse on this site, cookies collect data to enhance your experience and personalize the content and advertising you see.
Visit our Privacy Policy to learn more. By continuing to use the site, you agree to this use of cookies and data.
  • In Lithuania
  • List of Countries
  • For 7 days
  • Water Temperature
  • Satellite Maps
  • Weather Map
  • Weather Widgets
  • user-avatar
    Login

    Hourly Weather Diphu

    Today, 11 December, Tuesday

    Time Temperature Precipitation Wind Pressure Humidity
    00:00 +16°C° 0 mm 1 mps 745 mmHg 82%
    01:00 +16°C° 0 mm 1 mps 745 mmHg 82%
    02:00 +16°C° 0 mm 1 mps 745 mmHg 82%
    03:00 +16°C° 0 mm 1 mps 744 mmHg 82%
    04:00 +15°C° 0 mm 1 mps 745 mmHg 82%
    05:00 +15°C° 0 mm 1 mps 745 mmHg 82%
    06:00 +16°C° 0 mm 1 mps 744 mmHg 85%
    07:00 +19°C° 0 mm 1 mps 744 mmHg 77%
    08:00 +22°C° 0 mm 1 mps 745 mmHg 68%
    09:00 +22°C° 0 mm 0 mps 745 mmHg 60%
    10:00 +25°C° 0 mm 1 mps 745 mmHg 56%
    11:00 +27°C° 0 mm 1 mps 745 mmHg 51%
    12:00 +28°C° 0 mm 1 mps 745 mmHg 47%
    13:00 +28°C° 0.1 mm 1 mps 744 mmHg 49%
    14:00 +27°C° 0.1 mm 1 mps 743 mmHg 50%
    15:00 +27°C° 0.1 mm 1 mps 743 mmHg 52%
    16:00 +25°C° 0 mm 1 mps 743 mmHg 61%
    17:00 +22°C° 0 mm 1 mps 743 mmHg 70%
    18:00 +20°C° 0 mm 1 mps 744 mmHg 79%
    19:00 +19°C° 0 mm 1 mps 744 mmHg 80%
    20:00 +19°C° 0 mm 1 mps 744 mmHg 81%
    21:00 +18°C° 0 mm 1 mps 745 mmHg 81%
    22:00 +18°C° 0 mm 1 mps 745 mmHg 81%
    23:00 +18°C° 0 mm 1 mps 745 mmHg 81%

    Tomorrow, 12 December, Wednesday

    Time Temperature Precipitation Wind Pressure Humidity
    00:00 +18°C° 0 mm 1 mps 745 mmHg 81%
    01:00 +16°C° 0 mm 1 mps 745 mmHg 81%
    02:00 +16°C° 0 mm 1 mps 745 mmHg 81%
    03:00 +16°C° 0 mm 1 mps 745 mmHg 82%
    04:00 +16°C° 0 mm 1 mps 745 mmHg 82%
    05:00 +15°C° 0 mm 1 mps 745 mmHg 83%
    06:00 +15°C° 0 mm 1 mps 746 mmHg 84%
    07:00 +18°C° 0 mm 1 mps 746 mmHg 76%
    08:00 +20°C° 0 mm 1 mps 747 mmHg 69%
    09:00 +22°C° 0 mm 1 mps 747 mmHg 61%
    10:00 +24°C° 0 mm 1 mps 747 mmHg 56%
    11:00 +25°C° 0 mm 1 mps 747 mmHg 50%
    12:00 +27°C° 0 mm 1 mps 746 mmHg 44%
    13:00 +26°C° 0 mm 1 mps 746 mmHg 44%
    14:00 +26°C° 0 mm 1 mps 745 mmHg 45%
    15:00 +26°C° 0 mm 1 mps 744 mmHg 45%
    16:00 +24°C° 0 mm 1 mps 745 mmHg 53%
    17:00 +21°C° 0 mm 1 mps 745 mmHg 61%
    18:00 +19°C° 0 mm 1 mps 745 mmHg 70%
    19:00 +18°C° 0 mm 1 mps 745 mmHg 70%
    20:00 +18°C° 0 mm 1 mps 746 mmHg 71%
    21:00 +16°C° 0 mm 1 mps 746 mmHg 72%
    22:00 +16°C° 0 mm 1 mps 746 mmHg 72%
    23:00 +16°C° 0 mm 1 mps 746 mmHg 72%

    Day after tomorrow, 13 December, Thursday

    Time Temperature Precipitation Wind Pressure Humidity
    00:00 +15°C° 0 mm 1 mps 746 mmHg 72%
    01:00 +15°C° 0 mm 1 mps 746 mmHg 72%
    02:00 +15°C° 0 mm 1 mps 746 mmHg 72%
    03:00 +15°C° 0 mm 1 mps 746 mmHg 72%
    04:00 +14°C° 0 mm 1 mps 746 mmHg 73%
    05:00 +14°C° 0 mm 1 mps 746 mmHg 73%
    06:00 +14°C° 0 mm 1 mps 747 mmHg 74%
    07:00 +16°C° 0 mm 1 mps 747 mmHg 67%
    08:00 +20°C° 0 mm 1 mps 748 mmHg 59%
    09:00 +22°C° 0 mm 1 mps 748 mmHg 52%
    10:00 +23°C° 0 mm 1 mps 748 mmHg 48%
    11:00 +25°C° 0 mm 1 mps 747 mmHg 44%
    12:00 +26°C° 0 mm 1 mps 746 mmHg 40%
    13:00 +26°C° 0 mm 1 mps 746 mmHg 41%
    14:00 +26°C° 0 mm 1 mps 745 mmHg 42%
    15:00 +26°C° 0 mm 1 mps 744 mmHg 43%
    16:00 +23°C° 0 mm 1 mps 744 mmHg 51%
    17:00 +21°C° 0 mm 1 mps 745 mmHg 60%
    18:00 +18°C° 0 mm 1 mps 745 mmHg 69%
    19:00 +18°C° 0 mm 1 mps 746 mmHg 70%
    20:00 +18°C° 0 mm 1 mps 746 mmHg 70%
    21:00 +16°C° 0 mm 1 mps 747 mmHg 71%
    22:00 +16°C° 0 mm 1 mps 747 mmHg 71%
    23:00 +16°C° 0 mm 1 mps 747 mmHg 71%

    14 December, Friday

    Time Temperature Precipitation Wind Pressure Humidity
    00:00 +15°C° 0 mm 1 mps 747 mmHg 71%
    01:00 +15°C° 0 mm 1 mps 747 mmHg 72%
    02:00 +15°C° 0 mm 1 mps 746 mmHg 73%
    03:00 +13°C° 0 mm 0 mps 746 mmHg 73%
    04:00 +14°C° 0 mm 1 mps 746 mmHg 74%
    05:00 +14°C° 0 mm 1 mps 747 mmHg 75%
    06:00 +14°C° 0 mm 1 mps 747 mmHg 76%
    07:00 +16°C° 0 mm 1 mps 747 mmHg 68%
    08:00 +19°C° 0 mm 1 mps 748 mmHg 61%
    09:00 +22°C° 0 mm 1 mps 748 mmHg 53%
    10:00 +23°C° 0 mm 1 mps 748 mmHg 49%
    11:00 +25°C° 0 mm 1 mps 747 mmHg 45%
    12:00 +26°C° 0 mm 1 mps 747 mmHg 40%
    13:00 +26°C° 0 mm 1 mps 746 mmHg 41%
    14:00 +26°C° 0 mm 1 mps 746 mmHg 42%
    15:00 +26°C° 0 mm 1 mps 745 mmHg 43%
    16:00 +23°C° 0 mm 1 mps 745 mmHg 52%
    17:00 +21°C° 0 mm 1 mps 745 mmHg 61%
    18:00 +18°C° 0 mm 1 mps 746 mmHg 70%
    19:00 +18°C° 0 mm 1 mps 746 mmHg 70%
    20:00 +18°C° 0 mm 1 mps 747 mmHg 70%
    21:00 +16°C° 0 mm 1 mps 747 mmHg 70%
    22:00 +15°C° 0 mm 0 mps 747 mmHg 69%
    23:00 +15°C° 0 mm 0 mps 747 mmHg 69%

    15 December, Saturday

    Time Temperature Precipitation Wind Pressure Humidity
    00:00 +15°C° 0 mm 0 mps 747 mmHg 68%
    01:00 +15°C° 0 mm 0 mps 747 mmHg 67%
    02:00 +15°C° 0 mm 0 mps 747 mmHg 67%
    03:00 +15°C° 0 mm 0 mps 746 mmHg 67%
    04:00 +15°C° 0 mm 0 mps 747 mmHg 68%
    05:00 +14°C° 0 mm 0 mps 747 mmHg 69%
    06:00 +14°C° 0 mm 0 mps 747 mmHg 70%
    07:00 +15°C° 0 mm 0 mps 748 mmHg 67%
    08:00 +17°C° 0 mm 0 mps 748 mmHg 63%
    09:00 +18°C° 0 mm 0 mps 749 mmHg 60%
    10:00 +19°C° 0 mm 0 mps 748 mmHg 55%
    11:00 +22°C° 0 mm 1 mps 748 mmHg 51%
    12:00 +24°C° 0 mm 1 mps 747 mmHg 46%
    13:00 +24°C° 0 mm 1 mps 747 mmHg 47%
    14:00 +24°C° 0 mm 1 mps 746 mmHg 48%
    15:00 +24°C° 0 mm 1 mps 746 mmHg 48%
    16:00 +21°C° 0 mm 0 mps 746 mmHg 53%
    17:00 +19°C° 0 mm 0 mps 747 mmHg 58%
    18:00 +18°C° 0 mm 0 mps 747 mmHg 63%
    19:00 +18°C° 0 mm 0 mps 748 mmHg 63%
    20:00 +18°C° 0 mm 0 mps 748 mmHg 63%
    21:00 +17°C° 0 mm 0 mps 749 mmHg 63%
    22:00 +17°C° 0 mm 0 mps 748 mmHg 63%
    23:00 +17°C° 0 mm 0 mps 748 mmHg 63%

    16 December, Sunday

    Time Temperature Precipitation Wind Pressure Humidity
    00:00 +17°C° 0 mm 0 mps 748 mmHg 63%
    01:00 +17°C° 0 mm 0 mps 748 mmHg 63%
    02:00 +17°C° 0 mm 0 mps 748 mmHg 63%
    03:00 +16°C° 0 mm 0 mps 748 mmHg 64%
    04:00 +16°C° 0 mm 0 mps 748 mmHg 64%
    05:00 +16°C° 0 mm 0 mps 748 mmHg 64%
    06:00 +16°C° 0 mm 0 mps 748 mmHg 64%
    07:00 +17°C° 0 mm 0 mps 748 mmHg 61%
    08:00 +21°C° 0 mm 1 mps 749 mmHg 57%
    09:00 +22°C° 0 mm 1 mps 749 mmHg 54%
    10:00 +23°C° 0 mm 1 mps 749 mmHg 51%
    11:00 +24°C° 0 mm 1 mps 748 mmHg 48%
    12:00 +25°C° 0 mm 1 mps 748 mmHg 44%
    13:00 +24°C° 0 mm 1 mps 747 mmHg 49%
    14:00 +24°C° 0 mm 1 mps 747 mmHg 53%
    15:00 +23°C° 0 mm 1 mps 746 mmHg 57%
    16:00 +20°C° 0 mm 0 mps 746 mmHg 61%
    17:00 +19°C° 0 mm 0 mps 747 mmHg 65%
    18:00 +18°C° 0 mm 0 mps 747 mmHg 68%
    19:00 +17°C° 0 mm 0 mps 747 mmHg 69%
    20:00 +16°C° 0 mm 0 mps 747 mmHg 70%
    21:00 +18°C° 0 mm 1 mps 747 mmHg 71%
    22:00 +16°C° 0 mm 1 mps 747 mmHg 71%
    23:00 +16°C° 0 mm 1 mps 747 mmHg 70%
    Show more